NOAA 17 DEB

Satellite information

Favourite Embed

Satellite Type and Status

DEBRISIN ORBIT

Key statistics

Satellite NOAA 17 DEB at a glance.

Uptime

8357

Days in orbit

Revolutions

≈ 14.4

Per day

Orbit

SSO

Sun Synchronous Orbit

Inclination

98.7

Latest

Satellite identification and parameters

Extended collection of information and parameters for NOAA 17 DEB.

Object identification

Identified? True

Debris? True

Object name: NOAA 17 DEB

International designator: 2002-032CH

Object number (NORAD): 48748

Object ID (CCSDS): 48748

Country: UNITED STATES OF AMERICA (US)

Current information (Y/N): Y

RCS size: SMALL

Orbital parameters

Period: 99.757 minutes

Inclination: 98.7412 deg

SMA: 7125.058 km

Apoapsis: 766.982 km

Periapsis: 726.863 km

RAAN: 91.3133 deg

Eccentricy: 0.0028153

Argument of periapsis: 28.6074 deg

Mean anomaly: 331.6653 deg

Mean motion: 14.43511319 rev/day

Mean motion (dot): 0.00009377 rev/day2

B* drag term: 0.0027679 1/REarth

Two-line elements (TLE)

Creation date: May 10, 2025, 2:32 a.m.

Reference frame: TEME

Reference center: EARTH

Epoch: May 9, 2025, 8:30 a.m. UTC

TLE line 0: 0 NOAA 17 DEB

TLE line 1: 1 48748U 02032CH 25129.35481772 .00009377 00000-0 27679-2 0 9993

TLE line 2: 2 48748 98.7412 91.3133 0028153 28.6074 331.6653 14.43511319214781

Live tracking on map

Real-time ground track for satellite NOAA 17 DEB.

In-orbit conjunctions

A list of the most updated potential collisions computed for object NOAA 17 DEB.

Target Orbit TCA Probability of collision Miss distance Type
SL-8 R/B LEO 2025-03-08 17:01:45 0.0001117264 244.0 (m) ROCKET BODY
NOAA 16 DEB SSO 2024-09-26 19:22:31 0.0001671596 443.0 (m) DEBRIS

Associated space launch

NOAA M carried weather imagers and microwave and infrared sounders, as well as a SARSAT search-and-rescue package. It had an on-orbit mass of 1475 kg.

NOAA 17 DEB was lifted into orbit during the mission ‘Titan II SLV | NOAA 17’, on board a Titan II SLV space rocket.

The launch took place on June 24, 2002, 6:23 p.m. from Space Launch Complex 4W.

For more information about the launch, click the button.

Launch to space Titan II SLV | NOAA 17
Titan II SLV | NOAA 17

Agency: N/A

Status: Launch Successful

Launch date: June 24, 2002, 6:23 p.m. UTC

Rocket: Titan II SLV

Launch pad: Space Launch Complex 4W

Location: Vandenberg SFB, CA, USA

...

Latest news about this satellite

There are no fresh news available about this satellite. Check back as we update our databases every day.


Newsletter sign-up

Weekly statistics, charts and insights to help you stay on top of the space industry.